Year,Month,Day,Hour,Minute,Value (Times are PST for temperature in C)
2015,08,23,00,00,15.80
2015,08,23,00,01,15.80
2015,08,23,00,02,15.80
2015,08,23,00,03,15.80
2015,08,23,00,04,15.80
2015,08,23,00,05,15.80
2015,08,23,00,06,15.80
2015,08,23,00,07,15.80
2015,08,23,00,08,15.80
2015,08,23,00,09,15.80
2015,08,23,00,10,15.80
2015,08,23,00,11,15.80
2015,08,23,00,12,15.80
2015,08,23,00,13,15.80
2015,08,23,00,14,15.80
2015,08,23,00,15,15.80
2015,08,23,00,16,15.80
2015,08,23,00,17,15.80
2015,08,23,00,18,15.80
2015,08,23,00,19,15.80
2015,08,23,00,20,15.80
2015,08,23,00,21,15.80
2015,08,23,00,22,15.80
2015,08,23,00,23,15.90
2015,08,23,00,24,15.90
2015,08,23,00,25,16.00
2015,08,23,00,26,16.00
2015,08,23,00,27,16.10
2015,08,23,00,28,16.10
2015,08,23,00,29,16.20
2015,08,23,00,30,16.20
2015,08,23,00,31,16.20
2015,08,23,00,32,16.30
2015,08,23,00,33,16.30
2015,08,23,00,34,16.30
2015,08,23,00,35,16.30
2015,08,23,00,36,16.30
2015,08,23,00,37,16.30
2015,08,23,00,38,16.30
2015,08,23,00,39,16.30
2015,08,23,00,40,16.40
2015,08,23,00,41,16.30
2015,08,23,00,42,16.40
2015,08,23,00,43,16.40
2015,08,23,00,44,16.30
2015,08,23,00,45,16.40
2015,08,23,00,46,16.40
2015,08,23,00,47,16.40
2015,08,23,00,48,16.40
2015,08,23,00,49,16.40
2015,08,23,00,50,16.40
2015,08,23,00,51,16.40
2015,08,23,00,52,16.40
2015,08,23,00,53,16.40
2015,08,23,00,54,16.40
2015,08,23,00,55,16.40
2015,08,23,00,56,16.40
2015,08,23,00,57,16.50
2015,08,23,00,58,16.50
2015,08,23,00,59,16.50
2015,08,23,01,00,16.50
2015,08,23,01,01,16.50
2015,08,23,01,02,16.50
2015,08,23,01,03,16.50
2015,08,23,01,04,16.50
2015,08,23,01,05,16.40
2015,08,23,01,06,16.40
2015,08,23,01,07,16.40
2015,08,23,01,08,16.40
2015,08,23,01,09,16.40
2015,08,23,01,10,16.40
2015,08,23,01,11,16.40
2015,08,23,01,12,16.40
2015,08,23,01,13,16.40
2015,08,23,01,14,16.30
2015,08,23,01,15,16.30
2015,08,23,01,16,16.30
2015,08,23,01,17,16.30
2015,08,23,01,18,16.30
2015,08,23,01,19,16.20
2015,08,23,01,20,16.20
2015,08,23,01,21,16.20
2015,08,23,01,22,16.20
2015,08,23,01,23,16.20
2015,08,23,01,24,16.20
2015,08,23,01,25,16.10
2015,08,23,01,26,16.10
2015,08,23,01,27,16.10
2015,08,23,01,28,16.00
2015,08,23,01,29,16.00
2015,08,23,01,30,16.00
2015,08,23,01,31,15.90
2015,08,23,01,32,15.90
2015,08,23,01,33,15.90
2015,08,23,01,34,15.90
2015,08,23,01,35,15.80
2015,08,23,01,36,15.80
2015,08,23,01,37,15.80
2015,08,23,01,38,15.80
2015,08,23,01,39,15.80
2015,08,23,01,40,15.70
2015,08,23,01,41,15.70
2015,08,23,01,42,15.70
2015,08,23,01,43,15.70
2015,08,23,01,44,15.70
2015,08,23,01,45,15.60
2015,08,23,01,46,15.60
2015,08,23,01,47,15.60
2015,08,23,01,48,15.60
2015,08,23,01,49,15.60
2015,08,23,01,50,15.60
2015,08,23,01,51,15.60
2015,08,23,01,52,15.60
2015,08,23,01,53,15.60
2015,08,23,01,54,15.60
2015,08,23,01,55,15.60
2015,08,23,01,56,15.60
2015,08,23,01,57,15.60
2015,08,23,01,58,15.60
2015,08,23,01,59,15.60
2015,08,23,02,00,15.60
2015,08,23,02,01,15.60
2015,08,23,02,02,15.60
2015,08,23,02,03,15.60
2015,08,23,02,04,15.60
2015,08,23,02,05,15.50
2015,08,23,02,06,15.50
2015,08,23,02,07,15.50
2015,08,23,02,08,15.50
2015,08,23,02,09,15.50
2015,08,23,02,10,15.50
2015,08,23,02,11,15.50
2015,08,23,02,12,15.50
2015,08,23,02,13,15.50
2015,08,23,02,14,15.50
2015,08,23,02,15,15.50
2015,08,23,02,16,15.50
2015,08,23,02,17,15.50
2015,08,23,02,18,15.50
2015,08,23,02,19,15.50
2015,08,23,02,20,15.50
2015,08,23,02,21,15.50
2015,08,23,02,22,15.50
2015,08,23,02,23,15.40
2015,08,23,02,24,15.40
2015,08,23,02,25,15.40
2015,08,23,02,26,15.40
2015,08,23,02,27,15.40
2015,08,23,02,28,15.40
2015,08,23,02,29,15.40
2015,08,23,02,30,15.40
2015,08,23,02,31,15.40
2015,08,23,02,32,15.30
2015,08,23,02,33,15.30
2015,08,23,02,34,15.30
2015,08,23,02,35,15.30
2015,08,23,02,36,15.30
2015,08,23,02,37,15.30
2015,08,23,02,38,15.30
2015,08,23,02,39,15.30
2015,08,23,02,40,15.30
2015,08,23,02,41,15.30
2015,08,23,02,42,15.30
2015,08,23,02,43,15.40
2015,08,23,02,44,15.40
2015,08,23,02,45,15.30
2015,08,23,02,46,15.30
2015,08,23,02,47,15.30
2015,08,23,02,48,15.30
2015,08,23,02,49,15.30
2015,08,23,02,50,15.30
2015,08,23,02,51,15.40
2015,08,23,02,52,15.40
2015,08,23,02,53,15.40
2015,08,23,02,54,15.40
2015,08,23,02,55,15.40
2015,08,23,02,56,15.40
2015,08,23,02,57,15.40
2015,08,23,02,58,15.40
2015,08,23,02,59,15.40
2015,08,23,03,00,15.40
2015,08,23,03,01,15.40
2015,08,23,03,02,15.40
2015,08,23,03,06,15.30
2015,08,23,03,07,15.30
2015,08,23,03,08,15.30
2015,08,23,03,09,15.30
2015,08,23,03,10,15.30
2015,08,23,03,11,15.30
2015,08,23,03,12,15.30
2015,08,23,03,13,15.30
2015,08,23,03,14,15.30
2015,08,23,03,15,15.30
2015,08,23,03,16,15.30
2015,08,23,03,17,15.30
2015,08,23,03,18,15.30
2015,08,23,03,19,15.30
2015,08,23,03,20,15.30
2015,08,23,03,21,15.20
2015,08,23,03,22,15.20
2015,08,23,03,23,15.20
2015,08,23,03,24,15.20
2015,08,23,03,25,15.20
2015,08,23,03,26,15.20
2015,08,23,03,27,15.20
2015,08,23,03,28,15.20
2015,08,23,03,29,15.20
2015,08,23,03,30,15.20
2015,08,23,03,31,15.20
2015,08,23,03,32,15.20
2015,08,23,03,33,15.20
2015,08,23,03,34,15.20
2015,08,23,03,35,15.20
2015,08,23,03,36,15.20
2015,08,23,03,37,15.20
2015,08,23,03,38,15.20
2015,08,23,03,39,15.20
2015,08,23,03,40,15.20
2015,08,23,03,41,15.20
2015,08,23,03,42,15.10
2015,08,23,03,43,15.10
2015,08,23,03,44,15.10
2015,08,23,03,45,15.10
2015,08,23,03,46,15.10
2015,08,23,03,47,15.10
2015,08,23,03,48,15.10
2015,08,23,03,49,15.10
2015,08,23,03,50,15.10
2015,08,23,03,51,15.10
2015,08,23,03,52,15.10
2015,08,23,03,53,15.10
2015,08,23,03,54,15.10
2015,08,23,03,55,15.10
2015,08,23,03,56,15.10
2015,08,23,03,57,15.10
2015,08,23,03,58,15.10
2015,08,23,03,59,15.10
2015,08,23,04,00,15.10
2015,08,23,04,01,15.10
2015,08,23,04,02,15.10
2015,08,23,04,03,15.10
2015,08,23,04,04,15.10
2015,08,23,04,05,15.10
2015,08,23,04,06,15.10
2015,08,23,04,07,15.10
2015,08,23,04,08,15.10
2015,08,23,04,09,15.10
2015,08,23,04,10,15.10
2015,08,23,04,11,15.10
2015,08,23,04,12,15.10
2015,08,23,04,13,15.10
2015,08,23,04,14,15.10
2015,08,23,04,15,15.10
2015,08,23,04,16,15.10
2015,08,23,04,17,15.10
2015,08,23,04,18,15.10
2015,08,23,04,19,15.00
2015,08,23,04,20,15.00
2015,08,23,04,21,15.00
2015,08,23,04,22,15.00
2015,08,23,04,23,15.00
2015,08,23,04,24,15.00
2015,08,23,04,25,15.00
2015,08,23,04,26,15.00
2015,08,23,04,27,15.00
2015,08,23,04,28,15.10
2015,08,23,04,29,15.10
2015,08,23,04,30,15.10
2015,08,23,04,31,15.10
2015,08,23,04,32,15.00
2015,08,23,04,33,15.00
2015,08,23,04,34,15.00
2015,08,23,04,35,15.00
2015,08,23,04,36,15.00
2015,08,23,04,37,15.00
2015,08,23,04,38,15.00
2015,08,23,04,39,15.00
2015,08,23,04,40,14.90
2015,08,23,04,41,14.90
2015,08,23,04,42,14.90
2015,08,23,04,43,14.90
2015,08,23,04,44,14.90
2015,08,23,04,45,14.90
2015,08,23,04,46,14.90
2015,08,23,04,47,14.90
2015,08,23,04,48,14.90
2015,08,23,04,49,14.90
2015,08,23,04,50,14.90
2015,08,23,04,51,14.90
2015,08,23,04,52,14.90
2015,08,23,04,53,15.00
2015,08,23,04,54,15.00
2015,08,23,04,55,15.00
2015,08,23,04,56,15.00
2015,08,23,04,57,15.00
2015,08,23,04,58,15.00
2015,08,23,04,59,15.00
2015,08,23,05,00,15.10
2015,08,23,05,01,15.10
2015,08,23,05,02,15.10
2015,08,23,05,03,15.00
2015,08,23,05,04,15.00
2015,08,23,05,05,15.10
2015,08,23,05,06,15.10
2015,08,23,05,07,15.00
2015,08,23,05,08,15.10
2015,08,23,05,09,15.00
2015,08,23,05,10,15.00
2015,08,23,05,11,15.00
2015,08,23,05,12,15.00
2015,08,23,05,13,15.00
2015,08,23,05,14,15.10
2015,08,23,05,15,15.10
2015,08,23,05,16,15.10
2015,08,23,05,17,15.10
2015,08,23,05,18,15.20
2015,08,23,05,19,15.20
2015,08,23,05,20,15.20
2015,08,23,05,21,15.20
2015,08,23,05,22,15.20
2015,08,23,05,23,15.20
2015,08,23,05,24,15.20
2015,08,23,05,25,15.20
2015,08,23,05,26,15.30
2015,08,23,05,27,15.30
2015,08,23,05,28,15.30
2015,08,23,05,29,15.30
2015,08,23,05,30,15.30
2015,08,23,05,31,15.30
2015,08,23,05,32,15.40
2015,08,23,05,33,15.40
2015,08,23,05,34,15.40
2015,08,23,05,35,15.40
2015,08,23,05,36,15.50
2015,08,23,05,37,15.50
2015,08,23,05,38,15.60
2015,08,23,05,39,15.60
2015,08,23,05,40,15.70
2015,08,23,05,41,15.80
2015,08,23,05,42,15.80
2015,08,23,05,43,15.90
2015,08,23,05,44,15.90
2015,08,23,05,45,16.00
2015,08,23,05,46,16.00
2015,08,23,05,47,16.10
2015,08,23,05,48,16.20
2015,08,23,05,49,16.20
2015,08,23,05,50,16.30
2015,08,23,05,51,16.30
2015,08,23,05,52,16.40
2015,08,23,05,53,16.40
2015,08,23,05,54,16.40
2015,08,23,05,55,16.50
2015,08,23,05,56,16.50
2015,08,23,05,57,16.60
2015,08,23,05,58,16.60
2015,08,23,05,59,16.60
2015,08,23,06,00,16.60
2015,08,23,06,01,16.60
2015,08,23,06,02,16.60
2015,08,23,06,03,16.60
2015,08,23,06,04,16.60
2015,08,23,06,05,16.70
2015,08,23,06,06,16.60
2015,08,23,06,07,16.60
2015,08,23,06,08,16.60
2015,08,23,06,09,16.60
2015,08,23,06,10,16.60
2015,08,23,06,11,16.60
2015,08,23,06,12,16.60
2015,08,23,06,13,16.60
2015,08,23,06,14,16.60
2015,08,23,06,15,16.60
2015,08,23,06,16,16.60
2015,08,23,06,17,16.60
2015,08,23,06,18,16.60
2015,08,23,06,19,16.60
2015,08,23,06,20,16.60
2015,08,23,06,21,16.60
2015,08,23,06,22,16.60
2015,08,23,06,23,16.60
2015,08,23,06,24,16.60
2015,08,23,06,25,16.60
2015,08,23,06,26,16.60
2015,08,23,06,27,16.60
2015,08,23,06,28,16.70
2015,08,23,06,29,16.70
2015,08,23,06,30,16.70
2015,08,23,06,31,16.70
2015,08,23,06,32,16.70
2015,08,23,06,33,16.70
2015,08,23,06,34,16.70
2015,08,23,06,35,16.70
2015,08,23,06,36,16.70
2015,08,23,06,37,16.70
2015,08,23,06,38,16.60
2015,08,23,06,39,16.60
2015,08,23,06,40,16.60
2015,08,23,06,41,16.60
2015,08,23,06,42,16.60
2015,08,23,06,43,16.50
2015,08,23,06,44,16.50
2015,08,23,06,45,16.50
2015,08,23,06,46,16.50
2015,08,23,06,47,16.40
2015,08,23,06,48,16.40
2015,08,23,06,49,16.50
2015,08,23,06,50,16.50
2015,08,23,06,51,16.50
2015,08,23,06,52,16.50
2015,08,23,06,53,16.50
2015,08,23,06,54,16.50
2015,08,23,06,55,16.50
2015,08,23,06,56,16.40
2015,08,23,06,57,16.50
2015,08,23,06,58,16.50
2015,08,23,06,59,16.50
2015,08,23,07,00,16.50
2015,08,23,07,01,16.50
2015,08,23,07,02,16.50
2015,08,23,07,03,16.50
2015,08,23,07,04,16.60
2015,08,23,07,05,16.60
2015,08,23,07,06,16.60
2015,08,23,07,07,16.60
2015,08,23,07,08,16.60
2015,08,23,07,09,16.60
2015,08,23,07,10,16.70
2015,08,23,07,11,16.70
2015,08,23,07,12,16.70
2015,08,23,07,13,16.70
2015,08,23,07,14,16.70
2015,08,23,07,15,16.80
2015,08,23,07,16,16.80
2015,08,23,07,17,16.80
2015,08,23,07,18,16.80
2015,08,23,07,19,16.80
2015,08,23,07,20,16.80
2015,08,23,07,21,16.80
2015,08,23,07,22,16.80
2015,08,23,07,23,16.80
2015,08,23,07,24,16.80
2015,08,23,07,25,16.90
2015,08,23,07,26,16.90
2015,08,23,07,27,16.90
2015,08,23,07,28,16.90
2015,08,23,07,29,16.90
2015,08,23,07,30,16.90
2015,08,23,07,31,16.90
2015,08,23,07,32,16.90
2015,08,23,07,33,17.00
2015,08,23,07,34,17.00
2015,08,23,07,35,17.00
2015,08,23,07,36,17.10
2015,08,23,07,37,17.10
2015,08,23,07,38,17.10
2015,08,23,07,39,17.10
2015,08,23,07,40,17.20
2015,08,23,07,41,17.20
2015,08,23,07,42,17.20
2015,08,23,07,43,17.20
2015,08,23,07,44,17.20
2015,08,23,07,45,17.20
2015,08,23,07,46,17.30
2015,08,23,07,47,17.30
2015,08,23,07,48,17.30
2015,08,23,07,49,17.30
2015,08,23,07,50,17.30
2015,08,23,07,51,17.40
2015,08,23,07,52,17.40
2015,08,23,07,53,17.40
2015,08,23,07,54,17.40
2015,08,23,07,55,17.40
2015,08,23,07,56,17.50
2015,08,23,07,57,17.50
2015,08,23,07,58,17.50
2015,08,23,07,59,17.50
2015,08,23,08,00,17.50
2015,08,23,08,01,17.50
2015,08,23,08,02,17.50
2015,08,23,08,03,17.50
2015,08,23,08,04,17.60
2015,08,23,08,05,17.60
2015,08,23,08,06,17.60
2015,08,23,08,07,17.60
2015,08,23,08,08,17.60
2015,08,23,08,09,17.60
2015,08,23,08,10,17.60
2015,08,23,08,11,17.60
2015,08,23,08,12,17.60
2015,08,23,08,13,17.60
2015,08,23,08,14,17.60
2015,08,23,08,15,17.60
2015,08,23,08,16,17.60
2015,08,23,08,17,17.60
2015,08,23,08,18,17.60
2015,08,23,08,19,17.60
2015,08,23,08,20,17.70
2015,08,23,08,21,17.70
2015,08,23,08,22,17.70
2015,08,23,08,23,17.70
2015,08,23,08,24,17.70
2015,08,23,08,25,17.70
2015,08,23,08,26,17.70
2015,08,23,08,27,17.70
2015,08,23,08,28,17.70
2015,08,23,08,29,17.70
2015,08,23,08,30,17.70
2015,08,23,08,31,17.70
2015,08,23,08,32,17.70
2015,08,23,08,33,17.80
2015,08,23,08,34,17.80
2015,08,23,08,35,17.80
2015,08,23,08,36,17.80
2015,08,23,08,37,17.80
2015,08,23,08,38,17.80
2015,08,23,08,39,17.80
2015,08,23,08,40,17.80
2015,08,23,08,41,17.80
2015,08,23,08,42,17.90
2015,08,23,08,43,17.90
2015,08,23,08,44,17.90
2015,08,23,08,45,17.90
2015,08,23,08,46,18.00
2015,08,23,08,47,18.00
2015,08,23,08,48,18.10
2015,08,23,08,49,18.10
2015,08,23,08,50,18.10
2015,08,23,08,51,18.10
2015,08,23,08,52,18.10
2015,08,23,08,53,18.20
2015,08,23,08,54,18.20
2015,08,23,08,55,18.20
2015,08,23,08,56,18.20
2015,08,23,08,57,18.20
2015,08,23,08,58,18.30
2015,08,23,08,59,18.30
2015,08,23,09,00,18.30
2015,08,23,09,01,18.30
2015,08,23,09,02,18.30
2015,08,23,09,03,18.30
2015,08,23,09,04,18.30
2015,08,23,09,05,18.30
2015,08,23,09,06,18.40
2015,08,23,09,07,18.40
2015,08,23,09,08,18.40
2015,08,23,09,09,18.40
2015,08,23,09,10,18.40
2015,08,23,09,11,18.40
2015,08,23,09,12,18.40
2015,08,23,09,13,18.40
2015,08,23,09,14,18.40
2015,08,23,09,15,18.40
2015,08,23,09,16,18.40
2015,08,23,09,17,18.40
2015,08,23,09,18,18.40
2015,08,23,09,19,18.40
2015,08,23,09,20,18.40
2015,08,23,09,21,18.40
2015,08,23,09,22,18.40
2015,08,23,09,23,18.40
2015,08,23,09,24,18.40
2015,08,23,09,25,18.40
2015,08,23,09,26,18.50
2015,08,23,09,27,18.50
2015,08,23,09,28,18.50
2015,08,23,09,29,18.50
2015,08,23,09,30,18.50
2015,08,23,09,31,18.60
2015,08,23,09,32,18.60
2015,08,23,09,33,18.60
2015,08,23,09,34,18.60
2015,08,23,09,35,18.60
2015,08,23,09,36,18.60
2015,08,23,09,37,18.60
2015,08,23,09,38,18.60
2015,08,23,09,39,18.60
2015,08,23,09,40,18.60
2015,08,23,09,41,18.70
2015,08,23,09,42,18.70
2015,08,23,09,43,18.70
2015,08,23,09,44,18.70
2015,08,23,09,45,18.70
2015,08,23,09,46,18.80
2015,08,23,09,47,18.80
2015,08,23,09,48,18.80
2015,08,23,09,49,18.80
2015,08,23,09,50,18.90
2015,08,23,09,51,18.90
2015,08,23,09,52,18.90
2015,08,23,09,53,19.00
2015,08,23,09,54,19.00
2015,08,23,09,55,19.10
2015,08,23,09,56,19.10
2015,08,23,09,57,19.10
2015,08,23,09,58,19.10
2015,08,23,09,59,19.10
2015,08,23,10,00,19.20
2015,08,23,10,01,19.20
2015,08,23,10,02,19.20
2015,08,23,10,03,19.20
2015,08,23,10,04,19.20
2015,08,23,10,05,19.30
2015,08,23,10,06,19.30
2015,08,23,10,07,19.30
2015,08,23,10,08,19.30
2015,08,23,10,09,19.30
2015,08,23,10,10,19.40
2015,08,23,10,11,19.40
2015,08,23,10,12,19.40
2015,08,23,10,13,19.50
2015,08,23,10,14,19.60
2015,08,23,10,15,19.60
2015,08,23,10,16,19.60
2015,08,23,10,17,19.70
2015,08,23,10,18,19.70
2015,08,23,10,19,19.70
2015,08,23,10,20,19.80
2015,08,23,10,21,19.80
2015,08,23,10,22,19.90
2015,08,23,10,23,19.90
2015,08,23,10,24,20.00
2015,08,23,10,25,20.00
2015,08,23,10,26,20.10
2015,08,23,10,27,20.10
2015,08,23,10,28,20.20
2015,08,23,10,29,20.20
2015,08,23,10,30,20.20
2015,08,23,10,31,20.30
2015,08,23,10,32,20.30
2015,08,23,10,33,20.40
2015,08,23,10,34,20.40
2015,08,23,10,35,20.40
2015,08,23,10,36,20.50
2015,08,23,10,37,20.50
2015,08,23,10,38,20.60
2015,08,23,10,39,20.60
2015,08,23,10,40,20.60
2015,08,23,10,41,20.60
2015,08,23,10,42,20.70
2015,08,23,10,43,20.70
2015,08,23,10,44,20.80
2015,08,23,10,45,20.80
2015,08,23,10,46,20.80
2015,08,23,10,47,20.90
2015,08,23,10,48,20.90
2015,08,23,10,49,21.00
2015,08,23,10,50,21.00
2015,08,23,10,51,21.00
2015,08,23,10,52,21.10
2015,08,23,10,53,21.00
2015,08,23,10,54,21.00
2015,08,23,10,55,21.00
2015,08,23,10,56,20.90
2015,08,23,10,57,20.90
2015,08,23,10,58,20.90
2015,08,23,10,59,20.80
2015,08,23,11,00,20.80
2015,08,23,11,01,20.80
2015,08,23,11,02,20.80
2015,08,23,11,03,20.80
2015,08,23,11,04,20.80
2015,08,23,11,05,20.80
2015,08,23,11,06,20.80
2015,08,23,11,07,20.80
2015,08,23,11,08,20.80
2015,08,23,11,09,20.80
2015,08,23,11,10,20.80
2015,08,23,11,11,20.90
2015,08,23,11,12,20.90
2015,08,23,11,13,20.90
2015,08,23,11,14,20.80
2015,08,23,11,15,20.80
2015,08,23,11,16,20.80
2015,08,23,11,17,20.80
2015,08,23,11,18,20.80
2015,08,23,11,19,20.80
2015,08,23,11,20,20.80
2015,08,23,11,21,20.80
2015,08,23,11,22,20.80
2015,08,23,11,23,20.80
2015,08,23,11,24,20.80
2015,08,23,11,25,20.80
2015,08,23,11,26,20.80
2015,08,23,11,27,20.80
2015,08,23,11,28,20.90
2015,08,23,11,29,20.90
2015,08,23,11,30,21.00
2015,08,23,11,31,21.00
2015,08,23,11,32,21.00
2015,08,23,11,33,21.10
2015,08,23,11,34,21.10
2015,08,23,11,35,21.10
2015,08,23,11,36,21.20
2015,08,23,11,37,21.10
2015,08,23,11,38,21.10
2015,08,23,11,39,21.10
2015,08,23,11,40,21.10
2015,08,23,11,41,21.20
2015,08,23,11,42,21.20
2015,08,23,11,43,21.30
2015,08,23,11,44,21.30
2015,08,23,11,45,21.30
2015,08,23,11,46,21.40
2015,08,23,11,47,21.40
2015,08,23,11,48,21.50
2015,08,23,11,49,21.60
2015,08,23,11,50,21.60
2015,08,23,11,51,21.70
2015,08,23,11,52,21.80
2015,08,23,11,53,21.80
2015,08,23,11,54,21.80
2015,08,23,11,55,21.80
2015,08,23,11,56,21.80
2015,08,23,11,57,21.80
2015,08,23,11,58,21.70
2015,08,23,11,59,21.70
2015,08,23,12,00,21.70
2015,08,23,12,01,21.60
2015,08,23,12,02,21.70
2015,08,23,12,03,21.70
2015,08,23,12,04,21.80
2015,08,23,12,05,21.80
2015,08,23,12,06,21.90
2015,08,23,12,07,21.90
2015,08,23,12,08,22.00
2015,08,23,12,09,22.10
2015,08,23,12,10,22.20
2015,08,23,12,11,22.20
2015,08,23,12,12,22.30
2015,08,23,12,13,22.40
2015,08,23,12,14,22.50
2015,08,23,12,15,22.50
2015,08,23,12,16,22.50
2015,08,23,12,17,22.60
2015,08,23,12,18,22.60
2015,08,23,12,19,22.70
2015,08,23,12,20,22.80
2015,08,23,12,21,22.90
2015,08,23,12,22,23.10
2015,08,23,12,23,23.30
2015,08,23,12,24,23.50
2015,08,23,12,25,23.70
2015,08,23,12,26,23.80
2015,08,23,12,27,23.90
2015,08,23,12,28,24.00
2015,08,23,12,29,24.10
2015,08,23,12,30,24.20
2015,08,23,12,31,24.20
2015,08,23,12,32,24.20
2015,08,23,12,33,24.20
2015,08,23,12,34,24.20
2015,08,23,12,35,24.20
2015,08,23,12,36,24.20
2015,08,23,12,37,24.20
2015,08,23,12,38,24.10
2015,08,23,12,39,24.00
2015,08,23,12,40,24.00
2015,08,23,12,41,24.00
2015,08,23,12,42,24.10
2015,08,23,12,43,24.20
2015,08,23,12,44,24.20
2015,08,23,12,45,24.20
2015,08,23,12,46,24.20
2015,08,23,12,47,24.10
2015,08,23,12,48,24.10
2015,08,23,12,49,24.10
2015,08,23,12,50,24.20
2015,08,23,12,51,24.30
2015,08,23,12,52,24.40
2015,08,23,12,53,24.50
2015,08,23,12,54,24.50
2015,08,23,12,55,24.50
2015,08,23,12,56,24.50
2015,08,23,12,57,24.50
2015,08,23,12,58,24.40
2015,08,23,12,59,24.30
2015,08,23,13,00,24.20
2015,08,23,13,01,24.20
2015,08,23,13,02,24.10
2015,08,23,13,03,24.10
2015,08,23,13,04,24.10
2015,08,23,13,05,24.10
2015,08,23,13,06,24.20
2015,08,23,13,07,24.20
2015,08,23,13,08,24.20
2015,08,23,13,09,24.20
2015,08,23,13,10,24.20
2015,08,23,13,11,24.20
2015,08,23,13,12,24.30
2015,08,23,13,13,24.30
2015,08,23,13,14,24.30
2015,08,23,13,15,24.40
2015,08,23,13,16,24.40
2015,08,23,13,17,24.50
2015,08,23,13,18,24.40
2015,08,23,13,19,24.40
2015,08,23,13,20,24.40
2015,08,23,13,21,24.30
2015,08,23,13,22,24.30
2015,08,23,13,23,24.30
2015,08,23,13,24,24.30
2015,08,23,13,25,24.30
2015,08,23,13,26,24.20
2015,08,23,13,27,24.10
2015,08,23,13,28,23.90
2015,08,23,13,29,23.80
2015,08,23,13,30,23.60
2015,08,23,13,31,23.60
2015,08,23,13,32,23.60
2015,08,23,13,33,23.60
2015,08,23,13,34,23.70
2015,08,23,13,35,23.70
2015,08,23,13,36,23.70
2015,08,23,13,37,23.70
2015,08,23,13,38,23.70
2015,08,23,13,39,23.70
2015,08,23,13,40,23.70
2015,08,23,13,41,23.80
2015,08,23,13,42,23.80
2015,08,23,13,43,23.80
2015,08,23,13,44,23.80
2015,08,23,13,45,23.80
2015,08,23,13,46,23.80
2015,08,23,13,47,23.90
2015,08,23,13,48,23.90
2015,08,23,13,49,23.90
2015,08,23,13,50,24.00
2015,08,23,13,51,24.00
2015,08,23,13,52,24.10
2015,08,23,13,53,24.10
2015,08,23,13,54,24.00
2015,08,23,13,55,23.90
2015,08,23,13,56,23.80
2015,08,23,13,57,23.70
2015,08,23,13,58,23.70
2015,08,23,13,59,23.70
2015,08,23,14,00,23.70
2015,08,23,14,01,23.80
2015,08,23,14,02,23.80
2015,08,23,14,03,23.90
2015,08,23,14,04,23.90
2015,08,23,14,05,24.00
2015,08,23,14,06,24.10
2015,08,23,14,07,24.10
2015,08,23,14,08,24.10
2015,08,23,14,09,24.10
2015,08,23,14,10,24.10
2015,08,23,14,11,24.20
2015,08,23,14,12,24.30
2015,08,23,14,13,24.30
2015,08,23,14,14,24.20
2015,08,23,14,15,24.20
2015,08,23,14,16,24.20
2015,08,23,14,17,24.20
2015,08,23,14,18,24.20
2015,08,23,14,19,24.20
2015,08,23,14,20,24.20
2015,08,23,14,21,24.10
2015,08,23,14,22,24.10
2015,08,23,14,23,24.10
2015,08,23,14,24,24.10
2015,08,23,14,25,24.20
2015,08,23,14,26,24.10
2015,08,23,14,27,24.10
2015,08,23,14,28,24.00
2015,08,23,14,29,23.90
2015,08,23,14,30,23.90
2015,08,23,14,31,23.80
2015,08,23,14,32,23.80
2015,08,23,14,33,23.80
2015,08,23,14,34,23.70
2015,08,23,14,35,23.80
2015,08,23,14,36,23.80
2015,08,23,14,37,23.80
2015,08,23,14,38,23.80
2015,08,23,14,39,23.80
2015,08,23,14,40,23.80
2015,08,23,14,41,23.80
2015,08,23,14,42,23.90
2015,08,23,14,43,24.00
2015,08,23,14,44,24.10
2015,08,23,14,45,24.10
2015,08,23,14,46,24.20
2015,08,23,14,47,24.20
2015,08,23,14,48,24.20
2015,08,23,14,49,24.20
2015,08,23,14,50,24.20
2015,08,23,14,51,24.20
2015,08,23,14,52,24.30
2015,08,23,14,53,24.30
2015,08,23,14,54,24.20
2015,08,23,14,55,24.20
2015,08,23,14,56,24.10
2015,08,23,14,57,24.10
2015,08,23,14,58,24.10
2015,08,23,14,59,24.10
2015,08,23,15,00,24.00
2015,08,23,15,01,23.90
2015,08,23,15,02,23.90
2015,08,23,15,03,23.90
2015,08,23,15,04,23.90
2015,08,23,15,05,23.90
2015,08,23,15,06,24.00
2015,08,23,15,07,24.10
2015,08,23,15,08,24.10
2015,08,23,15,09,24.10
2015,08,23,15,10,24.20
2015,08,23,15,11,24.20
2015,08,23,15,12,24.30
2015,08,23,15,13,24.40
2015,08,23,15,14,24.60
2015,08,23,15,15,24.80
2015,08,23,15,16,24.90
2015,08,23,15,17,25.10
2015,08,23,15,18,25.20
2015,08,23,15,19,25.30
2015,08,23,15,20,25.40
2015,08,23,15,21,25.50
2015,08,23,15,22,25.60
2015,08,23,15,23,25.70
2015,08,23,15,24,25.70
2015,08,23,15,25,25.70
2015,08,23,15,26,25.70
2015,08,23,15,27,25.70
2015,08,23,15,28,25.70
2015,08,23,15,29,25.70
2015,08,23,15,30,25.70
2015,08,23,15,31,25.70
2015,08,23,15,32,25.70
2015,08,23,15,33,25.70
2015,08,23,15,34,25.60
2015,08,23,15,35,25.60
2015,08,23,15,36,25.60
2015,08,23,15,37,25.50
2015,08,23,15,38,25.40
2015,08,23,15,39,25.20
2015,08,23,15,40,25.10
2015,08,23,15,41,24.90
2015,08,23,15,42,24.80
2015,08,23,15,43,24.80
2015,08,23,15,44,24.70
2015,08,23,15,45,24.60
2015,08,23,15,46,24.40
2015,08,23,15,47,24.40
2015,08,23,15,48,24.30
2015,08,23,15,49,24.30
2015,08,23,15,50,24.30
2015,08,23,15,51,24.30
2015,08,23,15,52,24.20
2015,08,23,15,53,24.20
2015,08,23,15,54,24.20
2015,08,23,15,55,24.20
2015,08,23,15,56,24.30
2015,08,23,15,57,24.30
2015,08,23,15,58,24.30
2015,08,23,15,59,24.40
2015,08,23,16,00,24.40
2015,08,23,16,01,24.50
2015,08,23,16,02,24.50
2015,08,23,16,03,24.60
2015,08,23,16,04,24.60
2015,08,23,16,05,24.60
2015,08,23,16,06,24.50
2015,08,23,16,07,24.50
2015,08,23,16,08,24.50
2015,08,23,16,09,24.50
2015,08,23,16,10,24.50
2015,08,23,16,11,24.50
2015,08,23,16,12,24.60
2015,08,23,16,13,24.50
2015,08,23,16,14,24.50
2015,08,23,16,15,24.50
2015,08,23,16,16,24.40
2015,08,23,16,17,24.40
2015,08,23,16,18,24.40
2015,08,23,16,19,24.40
2015,08,23,16,20,24.30
2015,08,23,16,21,24.20
2015,08,23,16,22,24.10
2015,08,23,16,23,24.00
2015,08,23,16,24,24.00
2015,08,23,16,25,23.90
2015,08,23,16,26,23.90
2015,08,23,16,27,23.90
2015,08,23,16,28,23.80
2015,08,23,16,29,23.80
2015,08,23,16,30,23.80
2015,08,23,16,31,23.70
2015,08,23,16,32,23.70
2015,08,23,16,33,23.60
2015,08,23,16,34,23.60
2015,08,23,16,35,23.50
2015,08,23,16,36,23.40
2015,08,23,16,37,23.30
2015,08,23,16,38,23.20
2015,08,23,16,39,23.20
2015,08,23,16,40,23.10
2015,08,23,16,41,23.10
2015,08,23,16,42,23.10
2015,08,23,16,43,23.00
2015,08,23,16,44,23.00
2015,08,23,16,45,22.90
2015,08,23,16,46,22.90
2015,08,23,16,47,22.90
2015,08,23,16,48,22.90
2015,08,23,16,49,22.90
2015,08,23,16,50,22.90
2015,08,23,16,51,22.90
2015,08,23,16,52,22.90
2015,08,23,16,53,22.90
2015,08,23,16,54,22.90
2015,08,23,16,55,22.90
2015,08,23,16,56,22.90
2015,08,23,16,57,22.90
2015,08,23,16,58,22.90
2015,08,23,16,59,23.00
2015,08,23,17,00,23.00
2015,08,23,17,01,23.00
2015,08,23,17,02,23.00
2015,08,23,17,03,23.10
2015,08,23,17,04,23.10
2015,08,23,17,05,23.10
2015,08,23,17,06,23.10
2015,08,23,17,07,23.20
2015,08,23,17,08,23.20
2015,08,23,17,09,23.20
2015,08,23,17,10,23.20
2015,08,23,17,11,23.20
2015,08,23,17,12,23.20
2015,08,23,17,13,23.10
2015,08,23,17,14,23.10
2015,08,23,17,15,23.10
2015,08,23,17,16,23.10
2015,08,23,17,17,23.10
2015,08,23,17,18,23.10
2015,08,23,17,19,23.10
2015,08,23,17,20,23.20
2015,08,23,17,21,23.20
2015,08,23,17,22,23.20